VHMMC YSBK-YBAS

Flight info

Callsign VHMMC
Flight time 2h 35m
Altitude 38000
Route KADOM A576 KALUG DCT YOTHU
Aircraft LJ35/M-L/CB1

Departure

Time 2026-04-26 22:12
Airport Sydney Bankstown Airport (YSBK)

Arrival

Time 2026-04-27 00:47
Airport Alice Springs Airport (YBAS)
Time Latitude Longitude Altitude Speed Heading
2026-04-26 21:52 -33.92019 150.99081 28 ft 0 kts 33°
2026-04-26 22:08 -33.92017 150.99097 27 ft 5 kts 127°
2026-04-26 22:08 -33.92068 150.99067 27 ft 13 kts 240°
2026-04-26 22:08 -33.92146 150.99048 27 ft 15 kts 123°
2026-04-26 22:09 -33.92209 150.99161 27 ft 18 kts 123°
2026-04-26 22:09 -33.92285 150.99298 27 ft 21 kts 124°
2026-04-26 22:09 -33.92372 150.99455 27 ft 24 kts 123°
2026-04-26 22:09 -33.92456 150.99603 28 ft 19 kts 123°
2026-04-26 22:10 -33.92515 150.99680 28 ft 9 kts 160°
2026-04-26 22:10 -33.92569 150.99646 31 ft 12 kts 206°
2026-04-26 22:10 -33.92661 150.99633 28 ft 13 kts 233°
2026-04-26 22:10 -33.92650 150.99595 29 ft 0 kts 304°
2026-04-26 22:11 -33.92572 150.99456 27 ft 66 kts 303°
2026-04-26 22:11 -33.92118 150.98647 70 ft 158 kts 304°
2026-04-26 22:12 -33.91466 150.97552 1112 ft 162 kts 307°
2026-04-26 22:12 -33.90727 150.96350 1777 ft 195 kts 305°
2026-04-26 22:12 -33.89957 150.94855 2404 ft 224 kts 303°
2026-04-26 22:12 -33.89121 150.93156 3055 ft 248 kts 301°
2026-04-26 22:13 -33.88499 150.91210 4075 ft 252 kts 287°
2026-04-26 22:13 -33.88033 150.89130 5515 ft 261 kts 285°
2026-04-26 22:13 -33.87478 150.87028 7061 ft 263 kts 289°
2026-04-26 22:13 -33.86865 150.84961 8188 ft 269 kts 289°
2026-04-26 22:14 -33.86241 150.82821 9370 ft 273 kts 288°
2026-04-26 22:14 -33.85624 150.80635 10530 ft 278 kts 288°
2026-04-26 22:14 -33.84997 150.78415 11616 ft 282 kts 288°
2026-04-26 22:14 -33.84356 150.76164 12698 ft 287 kts 288°
2026-04-26 22:15 -33.83922 150.74648 13420 ft 290 kts 288°
2026-04-26 22:15 -33.83256 150.72322 14523 ft 295 kts 288°
2026-04-26 22:15 -33.82583 150.69967 15546 ft 300 kts 288°
2026-04-26 22:15 -33.81673 150.66778 16875 ft 309 kts 289°
2026-04-26 22:16 -33.81197 150.65109 17572 ft 313 kts 289°
2026-04-26 22:16 -33.80490 150.62644 18605 ft 318 kts 289°
2026-04-26 22:16 -33.79764 150.60109 19525 ft 323 kts 289°
2026-04-26 22:16 -33.79027 150.57540 20463 ft 327 kts 289°
2026-04-26 22:17 -33.78282 150.54939 21401 ft 332 kts 289°
2026-04-26 22:17 -33.77521 150.52291 22332 ft 337 kts 289°
2026-04-26 22:17 -33.76750 150.49610 23292 ft 342 kts 289°
2026-04-26 22:17 -33.75967 150.46889 24191 ft 346 kts 289°
2026-04-26 22:18 -33.75172 150.44126 25011 ft 351 kts 288°
2026-04-26 22:18 -33.74380 150.41377 25831 ft 355 kts 288°
2026-04-26 22:18 -33.73565 150.38555 26650 ft 359 kts 288°
2026-04-26 22:18 -33.72743 150.35711 27473 ft 363 kts 288°
2026-04-26 22:19 -33.71908 150.32823 28244 ft 368 kts 288°
2026-04-26 22:19 -33.71062 150.29887 29030 ft 373 kts 287°
2026-04-26 22:19 -33.70274 150.26900 29798 ft 377 kts 287°
2026-04-26 22:19 -33.69445 150.23892 30544 ft 381 kts 288°
2026-04-26 22:20 -33.68608 150.20888 31159 ft 385 kts 287°
2026-04-26 22:20 -33.67773 150.17803 31763 ft 389 kts 287°
2026-04-26 22:20 -33.66940 150.14701 32375 ft 393 kts 287°
2026-04-26 22:20 -33.66085 150.11568 32987 ft 396 kts 287°
2026-04-26 22:21 -33.65221 150.08423 33650 ft 397 kts 287°
2026-04-26 22:21 -33.64365 150.05289 34429 ft 394 kts 286°
2026-04-26 22:21 -33.63512 150.02159 35065 ft 393 kts 286°
2026-04-26 22:21 -33.62660 149.99047 35692 ft 391 kts 287°
2026-04-26 22:22 -33.61809 149.95946 36302 ft 390 kts 287°
2026-04-26 22:22 -33.60974 149.92903 36903 ft 389 kts 287°
2026-04-26 22:22 -33.60130 149.89828 37497 ft 387 kts 287°
2026-04-26 22:22 -33.59287 149.86765 38064 ft 386 kts 287°
2026-04-26 22:23 -33.58439 149.83682 38314 ft 394 kts 287°
2026-04-26 22:23 -33.57568 149.80512 38340 ft 406 kts 287°
2026-04-26 22:23 -33.56665 149.77239 38343 ft 418 kts 287°
2026-04-26 22:23 -33.55739 149.73892 38349 ft 426 kts 287°
2026-04-26 22:24 -33.53840 149.67030 38351 ft 439 kts 287°
2026-04-26 22:24 -33.51906 149.60057 38343 ft 447 kts 287°
2026-04-26 22:25 -33.49929 149.52953 38347 ft 451 kts 286°
2026-04-26 22:25 -33.47933 149.45786 38345 ft 453 kts 287°
2026-04-26 22:26 -33.45927 149.38611 38348 ft 454 kts 287°
2026-04-26 22:26 -33.43930 149.31485 38343 ft 454 kts 287°
2026-04-26 22:27 -33.41914 149.24309 38332 ft 454 kts 287°
2026-04-26 22:27 -33.39892 149.17126 38334 ft 454 kts 287°
2026-04-26 22:28 -33.37870 149.09966 38332 ft 454 kts 287°
2026-04-26 22:28 -33.35843 149.02802 38317 ft 454 kts 287°
2026-04-26 22:29 -33.33822 148.95679 38318 ft 454 kts 286°
2026-04-26 22:29 -33.31782 148.88506 38316 ft 455 kts 287°
2026-04-26 22:30 -33.29738 148.81339 38319 ft 455 kts 286°
2026-04-26 22:30 -33.27701 148.74212 38307 ft 455 kts 286°
2026-04-26 22:31 -33.25653 148.67065 38305 ft 455 kts 286°
2026-04-26 22:31 -33.23611 148.59952 38305 ft 455 kts 286°
2026-04-26 22:32 -33.21549 148.52796 38300 ft 455 kts 286°
2026-04-26 22:32 -33.19485 148.45641 38293 ft 455 kts 286°
2026-04-26 22:33 -33.16389 148.34952 38291 ft 455 kts 287°
2026-04-26 22:34 -33.14312 148.27798 38291 ft 455 kts 287°
2026-04-26 22:34 -33.11663 148.20982 38294 ft 460 kts 300°
2026-04-26 22:35 -33.08163 148.14584 38294 ft 460 kts 300°
2026-04-26 22:35 -33.04701 148.08158 38296 ft 460 kts 300°
2026-04-26 22:36 -33.01217 148.01768 38297 ft 461 kts 300°
2026-04-26 22:36 -32.97725 147.95337 38298 ft 462 kts 300°
2026-04-26 22:37 -32.94238 147.88948 38290 ft 462 kts 300°
2026-04-26 22:37 -32.90728 147.82517 38292 ft 462 kts 300°
2026-04-26 22:38 -32.87218 147.76103 38293 ft 462 kts 300°
2026-04-26 22:38 -32.83727 147.69730 38293 ft 462 kts 300°
2026-04-26 22:39 -32.80208 147.63322 38303 ft 462 kts 300°
2026-04-26 22:39 -32.76711 147.56960 38293 ft 461 kts 300°
2026-04-26 22:40 -32.73192 147.50572 38293 ft 461 kts 300°
2026-04-26 22:40 -32.69673 147.44192 38293 ft 461 kts 300°
2026-04-26 22:41 -32.66152 147.37822 38287 ft 461 kts 300°
2026-04-26 22:41 -32.62624 147.31451 38295 ft 462 kts 300°
2026-04-26 22:42 -32.59118 147.25128 38290 ft 462 kts 300°
2026-04-26 22:42 -32.55578 147.18751 38290 ft 463 kts 300°
2026-04-26 22:43 -32.52027 147.12376 38290 ft 464 kts 300°
2026-04-26 22:43 -32.48473 147.05999 38290 ft 464 kts 300°
2026-04-26 22:44 -32.44921 146.99635 38291 ft 464 kts 300°
2026-04-26 22:44 -32.41350 146.93252 38292 ft 464 kts 300°
2026-04-26 22:45 -32.37773 146.86865 38296 ft 465 kts 300°
2026-04-26 22:45 -32.34219 146.80537 38290 ft 466 kts 300°
2026-04-26 22:46 -32.30626 146.74135 38290 ft 467 kts 300°
2026-04-26 22:46 -32.27021 146.67739 38289 ft 468 kts 300°
2026-04-26 22:47 -32.23413 146.61340 38284 ft 468 kts 300°
2026-04-26 22:47 -32.19799 146.54944 38285 ft 468 kts 300°
2026-04-26 22:48 -32.16181 146.48551 38285 ft 468 kts 300°
2026-04-26 22:48 -32.12587 146.42209 38286 ft 468 kts 300°
2026-04-26 22:49 -32.08956 146.35814 38286 ft 468 kts 300°
2026-04-26 22:49 -32.05345 146.29471 38284 ft 468 kts 300°
2026-04-26 22:50 -32.01706 146.23076 38282 ft 471 kts 300°
2026-04-26 22:50 -31.98046 146.16667 38281 ft 471 kts 300°
2026-04-26 22:51 -31.94381 146.10255 38281 ft 472 kts 300°
2026-04-26 22:51 -31.90707 146.03838 38270 ft 472 kts 300°
2026-04-26 22:52 -31.87034 145.97432 38273 ft 473 kts 300°
2026-04-26 22:52 -31.83365 145.91048 38273 ft 474 kts 300°
2026-04-26 22:53 -31.79660 145.84610 38266 ft 474 kts 300°
2026-04-26 22:53 -31.75963 145.78196 38259 ft 474 kts 300°
2026-04-26 22:54 -31.72276 145.71809 38264 ft 475 kts 300°
2026-04-26 22:54 -31.68553 145.65374 38264 ft 476 kts 300°
2026-04-26 22:55 -31.64833 145.58951 38265 ft 476 kts 300°
2026-04-26 22:55 -31.61106 145.52529 38266 ft 476 kts 300°
2026-04-26 22:56 -31.57366 145.46096 38266 ft 477 kts 300°
2026-04-26 22:56 -31.53643 145.39699 38266 ft 478 kts 300°
2026-04-26 22:57 -31.49887 145.33262 38267 ft 478 kts 300°
2026-04-26 22:57 -31.46122 145.26814 38268 ft 478 kts 300°
2026-04-26 22:58 -31.42372 145.20408 38266 ft 479 kts 299°
2026-04-26 22:58 -31.38597 145.13963 38264 ft 480 kts 300°
2026-04-26 22:59 -31.34827 145.07543 38266 ft 480 kts 300°
2026-04-26 22:59 -31.31041 145.01103 38266 ft 480 kts 300°
2026-04-26 23:00 -31.27247 144.94666 38258 ft 481 kts 299°
2026-04-26 23:00 -31.23441 144.88210 38258 ft 482 kts 299°
2026-04-26 23:01 -31.19629 144.81762 38259 ft 482 kts 299°
2026-04-26 23:01 -31.15829 144.75342 38260 ft 482 kts 299°
2026-04-26 23:02 -31.12013 144.68907 38253 ft 483 kts 299°
2026-04-26 23:02 -31.08198 144.62480 38253 ft 483 kts 299°
2026-04-26 23:03 -31.04360 144.56031 38257 ft 483 kts 299°
2026-04-26 23:03 -31.00543 144.49624 38233 ft 484 kts 299°
2026-04-26 23:04 -30.96697 144.43179 38266 ft 484 kts 298°
2026-04-26 23:04 -30.93489 144.37811 38266 ft 485 kts 299°
2026-04-26 23:05 -30.89000 144.30313 38264 ft 485 kts 299°
2026-04-26 23:05 -30.85785 144.24952 38264 ft 485 kts 299°
2026-04-26 23:06 -30.81913 144.18506 38262 ft 485 kts 298°
2026-04-26 23:06 -30.78053 144.12086 38265 ft 486 kts 298°
2026-04-26 23:07 -30.74150 144.05611 38268 ft 486 kts 298°
2026-04-26 23:07 -30.70282 143.99201 38268 ft 486 kts 298°
2026-04-26 23:08 -30.66386 143.92755 38266 ft 487 kts 298°
2026-04-26 23:08 -30.62493 143.86326 38261 ft 486 kts 298°
2026-04-26 23:09 -30.58616 143.79931 38264 ft 486 kts 298°
2026-04-26 23:09 -30.54716 143.73514 38265 ft 486 kts 298°
2026-04-26 23:10 -30.50819 143.67104 38267 ft 486 kts 298°
2026-04-26 23:10 -30.46898 143.60673 38264 ft 487 kts 298°
2026-04-26 23:11 -30.42991 143.54269 38263 ft 487 kts 298°
2026-04-26 23:11 -30.39101 143.47908 38264 ft 486 kts 298°
2026-04-26 23:12 -30.35174 143.41491 38262 ft 486 kts 298°
2026-04-26 23:12 -30.31274 143.35134 38262 ft 486 kts 298°
2026-04-26 23:13 -30.27347 143.28740 38259 ft 486 kts 298°
2026-04-26 23:13 -30.23420 143.22358 38260 ft 486 kts 298°
2026-04-26 23:14 -30.19524 143.16033 38258 ft 485 kts 298°
2026-04-26 23:14 -30.15602 143.09681 38258 ft 485 kts 298°
2026-04-26 23:15 -30.11674 143.03333 38258 ft 485 kts 298°
2026-04-26 23:15 -30.07743 142.96989 38257 ft 484 kts 298°
2026-04-26 23:16 -30.03846 142.90709 38263 ft 484 kts 298°
2026-04-26 23:16 -29.99925 142.84401 38254 ft 484 kts 298°
2026-04-26 23:17 -29.95999 142.78094 38251 ft 484 kts 298°
2026-04-26 23:17 -29.92074 142.71802 38250 ft 483 kts 298°
2026-04-26 23:18 -29.88146 142.65510 38247 ft 482 kts 298°
2026-04-26 23:18 -29.84248 142.59286 38247 ft 482 kts 298°
2026-04-26 23:19 -29.80318 142.53013 38250 ft 482 kts 298°
2026-04-26 23:19 -29.76392 142.46762 38251 ft 481 kts 298°
2026-04-26 23:20 -29.72479 142.40536 38248 ft 481 kts 298°
2026-04-26 23:20 -29.68563 142.34317 38248 ft 481 kts 298°
2026-04-26 23:21 -29.64629 142.28080 38225 ft 480 kts 298°
2026-04-26 23:21 -29.60700 142.21857 38247 ft 479 kts 298°
2026-04-26 23:22 -29.56804 142.15699 38248 ft 479 kts 298°
2026-04-26 23:22 -29.52881 142.09506 38246 ft 479 kts 298°
2026-04-26 23:23 -29.48947 142.03306 38250 ft 478 kts 298°
2026-04-26 23:23 -29.45027 141.97139 38249 ft 477 kts 298°
2026-04-26 23:24 -29.41141 141.91030 38250 ft 477 kts 298°
2026-04-26 23:24 -29.37223 141.84884 38243 ft 476 kts 298°
2026-04-26 23:25 -29.33308 141.78746 38244 ft 476 kts 298°
2026-04-26 23:25 -29.29420 141.72670 38242 ft 475 kts 298°
2026-04-26 23:26 -29.25514 141.66565 38239 ft 475 kts 299°
2026-04-26 23:26 -29.21603 141.60465 38236 ft 475 kts 299°
2026-04-26 23:27 -29.17690 141.54371 38238 ft 474 kts 299°
2026-04-26 23:27 -29.13779 141.48288 38233 ft 474 kts 299°
2026-04-26 23:28 -29.09873 141.42221 38233 ft 474 kts 299°
2026-04-26 23:28 -29.05981 141.36186 38233 ft 474 kts 299°
2026-04-26 23:29 -29.02064 141.30120 38230 ft 472 kts 299°
2026-04-26 23:29 -28.98187 141.24128 38228 ft 472 kts 299°
2026-04-26 23:30 -28.94286 141.18103 38224 ft 472 kts 299°
2026-04-26 23:30 -28.90398 141.12108 38225 ft 472 kts 299°
2026-04-26 23:31 -28.86497 141.06101 38223 ft 471 kts 299°
2026-04-26 23:31 -28.82589 141.00095 38223 ft 470 kts 299°
2026-04-26 23:32 -28.78684 140.94099 38223 ft 470 kts 300°
2026-04-26 23:32 -28.74800 140.88145 38223 ft 470 kts 300°
2026-04-26 23:33 -28.70892 140.82161 38214 ft 469 kts 300°
2026-04-26 23:33 -28.66993 140.76202 38214 ft 469 kts 300°
2026-04-26 23:34 -28.63113 140.70279 38216 ft 468 kts 300°
2026-04-26 23:34 -28.59214 140.64335 38193 ft 468 kts 300°
2026-04-26 23:35 -28.55321 140.58410 38211 ft 467 kts 300°
2026-04-26 23:35 -28.51426 140.52489 38211 ft 467 kts 300°
2026-04-26 23:36 -28.47527 140.46571 38211 ft 467 kts 300°
2026-04-26 23:36 -28.43630 140.40662 38207 ft 466 kts 301°
2026-04-26 23:37 -28.39755 140.34799 38212 ft 465 kts 301°
2026-04-26 23:37 -28.35860 140.28908 38209 ft 465 kts 301°
2026-04-26 23:38 -28.31969 140.23036 38209 ft 465 kts 301°
2026-04-26 23:38 -28.28105 140.17207 38210 ft 464 kts 301°
2026-04-26 23:39 -28.24225 140.11373 38208 ft 463 kts 301°
2026-04-26 23:39 -28.20351 140.05543 38202 ft 462 kts 301°
2026-04-26 23:40 -28.16478 139.99732 38201 ft 462 kts 301°
2026-04-26 23:40 -28.12626 139.93952 38203 ft 460 kts 302°
2026-04-26 23:41 -28.08766 139.88177 38203 ft 459 kts 302°
2026-04-26 23:41 -28.04905 139.82401 38200 ft 459 kts 302°
2026-04-26 23:42 -28.01047 139.76640 38202 ft 459 kts 302°
2026-04-26 23:42 -27.95263 139.68017 38201 ft 458 kts 302°
2026-04-26 23:43 -27.91434 139.62319 38197 ft 458 kts 302°
2026-04-26 23:43 -27.87570 139.56576 38197 ft 458 kts 302°
2026-04-26 23:44 -27.83732 139.50878 38201 ft 457 kts 302°
2026-04-26 23:44 -27.79880 139.45170 38200 ft 456 kts 302°
2026-04-26 23:45 -27.76675 139.40423 38203 ft 456 kts 302°
2026-04-26 23:45 -27.72189 139.33790 38200 ft 456 kts 303°
2026-04-26 23:46 -27.68338 139.28101 38197 ft 456 kts 303°
2026-04-26 23:46 -27.64485 139.22422 38197 ft 456 kts 303°
2026-04-26 23:47 -27.60627 139.16738 38200 ft 456 kts 303°
2026-04-26 23:47 -27.56767 139.11061 38198 ft 455 kts 303°
2026-04-26 23:48 -27.52923 139.05414 38181 ft 455 kts 303°
2026-04-26 23:48 -27.49059 138.99746 38179 ft 455 kts 303°
2026-04-26 23:49 -27.45224 138.94127 38182 ft 455 kts 303°
2026-04-26 23:49 -27.41360 138.88474 38182 ft 455 kts 303°
2026-04-26 23:50 -27.37488 138.82813 38177 ft 455 kts 303°
2026-04-26 23:50 -27.33617 138.77167 38180 ft 455 kts 303°
2026-04-26 23:51 -27.29768 138.71556 38180 ft 455 kts 303°
2026-04-26 23:51 -27.25892 138.65912 38177 ft 455 kts 304°
2026-04-26 23:52 -27.22015 138.60276 38177 ft 455 kts 304°
2026-04-26 23:52 -27.18794 138.55599 38177 ft 455 kts 304°
2026-04-26 23:53 -27.14914 138.49970 38177 ft 455 kts 304°
2026-04-26 23:53 -27.11030 138.44345 38178 ft 455 kts 304°
2026-04-26 23:54 -27.07170 138.38760 38178 ft 454 kts 304°
2026-04-26 23:54 -27.03306 138.33176 38178 ft 454 kts 304°
2026-04-26 23:55 -26.99423 138.27572 38175 ft 454 kts 304°
2026-04-26 23:55 -26.95538 138.21973 38171 ft 454 kts 304°
2026-04-26 23:56 -26.91674 138.16411 38172 ft 454 kts 305°
2026-04-26 23:56 -26.87787 138.10824 38169 ft 454 kts 305°
2026-04-26 23:57 -26.83903 138.05248 38168 ft 454 kts 305°
2026-04-26 23:57 -26.80011 137.99666 38169 ft 453 kts 305°
2026-04-26 23:58 -26.76147 137.94136 38178 ft 453 kts 305°
2026-04-26 23:58 -26.72255 137.88567 38167 ft 453 kts 305°
2026-04-26 23:59 -26.68388 137.83045 38167 ft 453 kts 305°
2026-04-26 23:59 -26.64503 137.77501 38169 ft 453 kts 306°
2026-04-27 00:00 -26.60610 137.71956 38179 ft 453 kts 306°
2026-04-27 00:00 -26.56723 137.66423 38171 ft 453 kts 306°
2026-04-27 00:01 -26.52824 137.60880 38169 ft 453 kts 306°
2026-04-27 00:01 -26.48927 137.55349 38170 ft 452 kts 306°
2026-04-27 00:02 -26.45058 137.49863 38168 ft 452 kts 306°
2026-04-27 00:02 -26.41165 137.44350 38173 ft 452 kts 306°
2026-04-27 00:03 -26.37270 137.38839 38165 ft 452 kts 306°
2026-04-27 00:03 -26.33380 137.33343 38167 ft 451 kts 306°
2026-04-27 00:04 -26.29514 137.27888 38171 ft 451 kts 307°
2026-04-27 00:04 -26.25619 137.22400 38171 ft 451 kts 307°
2026-04-27 00:05 -26.21719 137.16909 38168 ft 451 kts 307°
2026-04-27 00:05 -26.17815 137.11420 38168 ft 451 kts 307°
2026-04-27 00:06 -26.13938 137.05974 38168 ft 451 kts 307°
2026-04-27 00:06 -26.10037 137.00505 38168 ft 451 kts 307°
2026-04-27 00:07 -26.06129 136.95028 38167 ft 451 kts 307°
2026-04-27 00:07 -26.02223 136.89563 38167 ft 451 kts 307°
2026-04-27 00:08 -25.98340 136.84136 38167 ft 451 kts 307°
2026-04-27 00:08 -25.94431 136.78680 38173 ft 451 kts 307°
2026-04-27 00:09 -25.90547 136.73264 38175 ft 450 kts 307°
2026-04-27 00:09 -25.86634 136.67820 38170 ft 450 kts 307°
2026-04-27 00:10 -25.82720 136.62383 38171 ft 450 kts 307°
2026-04-27 00:10 -25.78805 136.56950 38171 ft 451 kts 307°
2026-04-27 00:11 -25.74900 136.51539 38169 ft 451 kts 307°
2026-04-27 00:11 -25.70967 136.46094 38174 ft 451 kts 307°
2026-04-27 00:12 -25.67039 136.40661 38171 ft 451 kts 307°
2026-04-27 00:12 -25.63106 136.35232 38174 ft 452 kts 306°
2026-04-27 00:13 -25.59185 136.29818 38173 ft 453 kts 306°
2026-04-27 00:13 -25.55227 136.24368 38174 ft 453 kts 306°
2026-04-27 00:14 -25.51272 136.18923 38174 ft 453 kts 306°
2026-04-27 00:14 -25.47336 136.13517 38168 ft 455 kts 305°
2026-04-27 00:15 -25.43359 136.08049 38174 ft 456 kts 305°
2026-04-27 00:15 -25.39369 136.02581 38176 ft 456 kts 305°
2026-04-27 00:16 -25.35381 135.97115 38171 ft 456 kts 305°
2026-04-27 00:16 -25.31407 135.91680 38174 ft 458 kts 304°
2026-04-27 00:17 -25.27387 135.86183 38174 ft 459 kts 304°
2026-04-27 00:17 -25.23366 135.80695 38175 ft 459 kts 304°
2026-04-27 00:18 -25.19336 135.75206 38176 ft 460 kts 303°
2026-04-27 00:18 -25.15326 135.69735 38176 ft 461 kts 303°
2026-04-27 00:19 -25.11254 135.64249 38171 ft 462 kts 305°
2026-04-27 00:19 -25.07010 135.58921 38056 ft 457 kts 305°
2026-04-27 00:20 -25.04948 135.56248 37504 ft 458 kts 304°
2026-04-27 00:20 -25.02890 135.53545 36962 ft 459 kts 304°
2026-04-27 00:20 -25.00833 135.50904 36441 ft 460 kts 306°
2026-04-27 00:20 -24.98733 135.48244 35933 ft 460 kts 306°
2026-04-27 00:21 -24.96643 135.45569 35429 ft 460 kts 306°
2026-04-27 00:21 -24.94566 135.42887 34943 ft 460 kts 306°
2026-04-27 00:21 -24.92483 135.40212 34458 ft 459 kts 306°
2026-04-27 00:21 -24.90392 135.37545 33937 ft 459 kts 306°
2026-04-27 00:22 -24.88301 135.34878 33392 ft 458 kts 306°
2026-04-27 00:22 -24.86250 135.32241 32867 ft 458 kts 306°
2026-04-27 00:22 -24.84174 135.29580 32352 ft 457 kts 307°
2026-04-27 00:22 -24.82100 135.26937 31842 ft 456 kts 307°
2026-04-27 00:23 -24.80016 135.24280 31333 ft 455 kts 307°
2026-04-27 00:23 -24.77955 135.21646 30840 ft 454 kts 308°
2026-04-27 00:23 -24.75889 135.19008 30355 ft 453 kts 308°
2026-04-27 00:23 -24.73830 135.16383 29800 ft 451 kts 308°
2026-04-27 00:24 -24.71787 135.13783 29242 ft 449 kts 308°
2026-04-27 00:24 -24.69764 135.11208 28700 ft 447 kts 308°
2026-04-27 00:24 -24.67730 135.08618 28155 ft 449 kts 308°
2026-04-27 00:24 -24.65665 135.05984 27624 ft 457 kts 308°
2026-04-27 00:25 -24.63572 135.03322 27111 ft 463 kts 308°
2026-04-27 00:25 -24.61452 135.00630 26608 ft 468 kts 309°
2026-04-27 00:25 -24.59311 134.97913 26104 ft 472 kts 308°
2026-04-27 00:25 -24.57185 134.95211 25613 ft 474 kts 308°
2026-04-27 00:26 -24.55023 134.92465 25139 ft 476 kts 308°
2026-04-27 00:26 -24.52851 134.89711 24666 ft 477 kts 308°
2026-04-27 00:26 -24.50669 134.86951 24199 ft 477 kts 309°
2026-04-27 00:26 -24.48651 134.84070 23720 ft 475 kts 300°
2026-04-27 00:27 -24.47116 134.80858 23178 ft 473 kts 292°
2026-04-27 00:27 -24.45848 134.77531 22635 ft 472 kts 289°
2026-04-27 00:27 -24.44653 134.74225 22111 ft 471 kts 290°
2026-04-27 00:27 -24.43288 134.70951 21580 ft 471 kts 295°
2026-04-27 00:28 -24.41712 134.67796 21076 ft 470 kts 298°
2026-04-27 00:28 -24.40085 134.64681 20566 ft 469 kts 297°
2026-04-27 00:28 -24.38572 134.61514 20070 ft 467 kts 295°
2026-04-27 00:28 -24.37110 134.58335 19781 ft 468 kts 295°
2026-04-27 00:29 -24.35631 134.55159 19623 ft 475 kts 295°
2026-04-27 00:29 -24.34117 134.51953 19465 ft 469 kts 295°
2026-04-27 00:29 -24.32630 134.48794 19302 ft 464 kts 295°
2026-04-27 00:29 -24.31166 134.45662 19146 ft 460 kts 295°
2026-04-27 00:30 -24.29712 134.42554 18989 ft 457 kts 295°
2026-04-27 00:30 -24.28258 134.39468 18823 ft 455 kts 296°
2026-04-27 00:30 -24.26808 134.36387 18666 ft 453 kts 295°
2026-04-27 00:30 -24.25361 134.33309 18507 ft 452 kts 295°
2026-04-27 00:31 -24.23920 134.30246 18332 ft 451 kts 296°
2026-04-27 00:31 -24.22483 134.27195 18151 ft 450 kts 296°
2026-04-27 00:31 -24.21043 134.24139 17971 ft 450 kts 296°
2026-04-27 00:31 -24.19626 134.21135 17795 ft 450 kts 296°
2026-04-27 00:32 -24.18190 134.18093 17613 ft 449 kts 296°
2026-04-27 00:32 -24.16752 134.15046 17441 ft 449 kts 296°
2026-04-27 00:32 -24.15318 134.12014 17267 ft 449 kts 296°
2026-04-27 00:32 -24.13878 134.08968 17000 ft 450 kts 296°
2026-04-27 00:33 -24.12446 134.05946 16404 ft 443 kts 296°
2026-04-27 00:33 -24.11032 134.02969 15805 ft 439 kts 296°
2026-04-27 00:33 -24.09634 134.00015 15214 ft 436 kts 296°
2026-04-27 00:33 -24.08264 133.97116 14644 ft 434 kts 296°
2026-04-27 00:34 -24.06876 133.94191 14077 ft 432 kts 296°
2026-04-27 00:34 -24.05490 133.91275 13449 ft 431 kts 296°
2026-04-27 00:34 -24.04104 133.88358 12814 ft 430 kts 296°
2026-04-27 00:34 -24.02725 133.85455 12195 ft 429 kts 296°
2026-04-27 00:35 -24.01347 133.82556 11599 ft 428 kts 296°
2026-04-27 00:35 -23.99988 133.79701 11015 ft 427 kts 296°
2026-04-27 00:35 -23.98629 133.76839 10435 ft 422 kts 296°
2026-04-27 00:35 -23.97280 133.74004 9828 ft 419 kts 296°
2026-04-27 00:36 -23.95981 133.71285 9193 ft 383 kts 296°
2026-04-27 00:36 -23.94795 133.68807 8559 ft 353 kts 297°
2026-04-27 00:36 -23.93576 133.66576 7923 ft 331 kts 307°
2026-04-27 00:36 -23.92052 133.64773 7295 ft 315 kts 319°
2026-04-27 00:37 -23.90314 133.63396 6692 ft 302 kts 330°
2026-04-27 00:37 -23.88481 133.62457 6241 ft 286 kts 341°
2026-04-27 00:37 -23.86668 133.61759 6084 ft 270 kts 345°
2026-04-27 00:37 -23.84870 133.61231 5965 ft 263 kts 350°
2026-04-27 00:38 -23.83104 133.60862 5895 ft 255 kts 354°
2026-04-27 00:38 -23.81363 133.60637 5836 ft 249 kts 358°
2026-04-27 00:38 -23.79643 133.60546 5768 ft 244 kts
2026-04-27 00:38 -23.77956 133.60584 5707 ft 241 kts
2026-04-27 00:39 -23.76331 133.60738 5643 ft 234 kts 11°
2026-04-27 00:39 -23.74745 133.61003 5585 ft 227 kts 14°
2026-04-27 00:39 -23.73221 133.61366 5526 ft 217 kts 18°
2026-04-27 00:39 -23.71816 133.61800 5478 ft 203 kts 21°
2026-04-27 00:40 -23.70525 133.62286 5473 ft 192 kts 25°
2026-04-27 00:40 -23.69330 133.62904 5469 ft 188 kts 42°
2026-04-27 00:40 -23.68467 133.63947 5476 ft 184 kts 62°
2026-04-27 00:40 -23.68027 133.65220 5477 ft 183 kts 82°
2026-04-27 00:41 -23.68049 133.66605 5478 ft 184 kts 102°
2026-04-27 00:41 -23.68540 133.67899 5487 ft 187 kts 117°
2026-04-27 00:41 -23.69245 133.69094 5486 ft 186 kts 121°
2026-04-27 00:41 -23.69912 133.70295 5489 ft 184 kts 119°
2026-04-27 00:42 -23.70341 133.71089 5479 ft 184 kts 118°
2026-04-27 00:42 -23.71000 133.72322 5277 ft 191 kts 118°
2026-04-27 00:42 -23.71669 133.73575 5035 ft 189 kts 118°
2026-04-27 00:42 -23.72330 133.74810 4786 ft 186 kts 118°
2026-04-27 00:43 -23.72974 133.76022 4551 ft 183 kts 118°
2026-04-27 00:43 -23.73603 133.77189 4304 ft 172 kts 118°
2026-04-27 00:43 -23.74182 133.78272 4083 ft 163 kts 119°
2026-04-27 00:43 -23.74737 133.79312 3880 ft 150 kts 120°
2026-04-27 00:44 -23.75236 133.80246 3690 ft 139 kts 121°
2026-04-27 00:44 -23.75712 133.81137 3526 ft 133 kts 121°
2026-04-27 00:44 -23.76178 133.82005 3352 ft 133 kts 118°
2026-04-27 00:44 -23.76647 133.82877 3174 ft 132 kts 121°
2026-04-27 00:45 -23.77096 133.83724 3003 ft 126 kts 118°
2026-04-27 00:45 -23.77547 133.84556 2838 ft 129 kts 121°
2026-04-27 00:45 -23.77999 133.85416 2672 ft 135 kts 122°
2026-04-27 00:45 -23.78483 133.86315 2461 ft 140 kts 122°
2026-04-27 00:46 -23.78966 133.87233 2272 ft 141 kts 120°
2026-04-27 00:46 -23.79457 133.88135 2060 ft 137 kts 121°
2026-04-27 00:46 -23.79926 133.89004 1879 ft 130 kts 119°
2026-04-27 00:46 -23.80372 133.89836 1788 ft 118 kts 119°
2026-04-27 00:47 -23.80747 133.90535 1774 ft 81 kts 120°
2026-04-27 00:47 -23.80884 133.90789 1773 ft 19 kts 120°
2026-04-27 00:47 -23.80952 133.90916 1774 ft 20 kts 121°
2026-04-27 00:47 -23.81030 133.91059 1774 ft 23 kts 120°
2026-04-27 00:48 -23.81108 133.91204 1775 ft 19 kts 120°
2026-04-27 00:48 -23.81159 133.91335 1773 ft 16 kts 98°
2026-04-27 00:48 -23.81188 133.91408 1774 ft 10 kts 187°
2026-04-27 00:48 -23.81177 133.91333 1773 ft 14 kts 300°
2026-04-27 00:49 -23.81119 133.91229 1775 ft 18 kts 299°
2026-04-27 00:49 -23.81048 133.91095 1774 ft 23 kts 301°
2026-04-27 00:49 -23.80959 133.90931 1774 ft 27 kts 300°
2026-04-27 00:49 -23.80864 133.90753 1773 ft 24 kts 300°
2026-04-27 00:50 -23.80775 133.90589 1774 ft 24 kts 301°
2026-04-27 00:50 -23.80624 133.90330 1776 ft 15 kts 328°
2026-04-27 00:50 -23.80519 133.90366 1776 ft 19 kts 31°
2026-04-27 00:51 -23.80443 133.90425 1776 ft 9 kts 95°
2026-04-27 00:51 -23.80450 133.90440 1776 ft 0 kts 118°